Volver al catálogo

STARLINK-35375

ActivoComunicacionesVLEO
NORAD 66065·PAYLOAD·🇺🇸 United States

Lanzado Oct 19, 2025 desde Cape Canaveral Space Force Station

Loading…

Próximos Pases (próximas 24 horas)

TLE

ActualizadoSource: CelesTrak SupGP

Época: Sep 15, 2026, 03:44 UTC

1 66065C 25235H   26258.15604167 -.00022986  00000+0 -67916-3 0  2581
2 66065  53.1586  84.6865 0001181  85.7186  42.4588 15.34400283    18

Sigue STARLINK-35375 en tiempo real con AllMySat

Download on the App Store